PATHFINDER 1

Last updated on Fri Oct 04 2024 00:02:25 GMT+0000 (Coordinated Universal Time)

1 41787U 16059E 24277.55618087 .00004278 00000+0 78479-3 0 9998 2 41787 97.8268 294.6228 0029993 29.4029 330.8855 14.65943730428570
UTC large
Height (km)
Speed (km/s)
/
Latitude / Longitude
Inclination (degrees)
Orbital Period (minutes)
Azimuth
Elevation
Range (km)
Doppler Factor

Next 0 passes for location: London (51.5072 / 0.1276)

Sorry there are no passes over London.